AAL1958 SULS-SAEZ

Flight info

Callsign AAL1958
Flight time 0h 35m
Altitude 28000
Route LUCIO UGIMI PTA EZE
Aircraft B738/M-VGDW/C

Departure

Time 2026-04-26 21:14
Airport Capitan Corbeta CA Curbelo International Airport (SULS)

Arrival

Time 2026-04-26 21:49
Airport Ezeiza International Airport - Ministro Pistarini (SAEZ)
Time Latitude Longitude Altitude Speed Heading
2026-04-26 21:03 -34.85931 -55.09743 95 ft 0 kts 164°
2026-04-26 21:09 -34.85932 -55.09743 95 ft 0 kts 166°
2026-04-26 21:09 -34.85955 -55.09750 96 ft 7 kts 216°
2026-04-26 21:09 -34.85934 -55.09826 97 ft 17 kts 327°
2026-04-26 21:10 -34.85848 -55.09831 95 ft 16 kts 348°
2026-04-26 21:10 -34.85777 -55.09861 93 ft 7 kts 338°
2026-04-26 21:10 -34.85764 -55.09868 93 ft 0 kts 338°
2026-04-26 21:10 -34.85763 -55.09868 93 ft 0 kts 338°
2026-04-26 21:11 -34.85753 -55.09873 93 ft 7 kts 338°
2026-04-26 21:11 -34.85671 -55.09891 91 ft 11 kts 18°
2026-04-26 21:12 -34.85584 -55.09671 88 ft 40 kts 74°
2026-04-26 21:12 -34.85489 -55.09312 82 ft 37 kts 74°
2026-04-26 21:12 -34.85446 -55.09051 78 ft 20 kts 99°
2026-04-26 21:12 -34.85404 -55.09024 78 ft 9 kts 271°
2026-04-26 21:13 -34.85434 -55.09095 78 ft 0 kts 245°
2026-04-26 21:13 -34.85434 -55.09097 79 ft 4 kts 246°
2026-04-26 21:13 -34.85549 -55.09540 86 ft 105 kts 252°
2026-04-26 21:14 -34.85839 -55.10653 537 ft 157 kts 254°
2026-04-26 21:14 -34.86137 -55.11823 1837 ft 158 kts 254°
2026-04-26 21:14 -34.86502 -55.13193 2733 ft 186 kts 252°
2026-04-26 21:14 -34.86918 -55.14577 4266 ft 178 kts 250°
2026-04-26 21:15 -34.87416 -55.16041 4968 ft 212 kts 248°
2026-04-26 21:15 -34.88030 -55.17909 5195 ft 262 kts 252°
2026-04-26 21:15 -34.88594 -55.20096 6205 ft 279 kts 255°
2026-04-26 21:15 -34.89035 -55.22283 7991 ft 263 kts 258°
2026-04-26 21:16 -34.89383 -55.24319 9625 ft 249 kts 258°
2026-04-26 21:16 -34.89815 -55.26396 10401 ft 269 kts 255°
2026-04-26 21:16 -34.90426 -55.28651 10975 ft 294 kts 251°
2026-04-26 21:16 -34.91123 -55.31089 11553 ft 317 kts 252°
2026-04-26 21:17 -34.91827 -55.33746 12079 ft 339 kts 252°
2026-04-26 21:17 -34.92538 -55.36474 13058 ft 339 kts 253°
2026-04-26 21:17 -34.93212 -55.39054 13378 ft 316 kts 253°
2026-04-26 21:17 -34.93897 -55.41697 13860 ft 338 kts 253°
2026-04-26 21:18 -34.94623 -55.44512 14177 ft 363 kts 253°
2026-04-26 21:18 -34.95387 -55.47464 15022 ft 369 kts 253°
2026-04-26 21:18 -34.96156 -55.50442 15882 ft 374 kts 253°
2026-04-26 21:18 -34.96944 -55.53500 16781 ft 377 kts 253°
2026-04-26 21:19 -34.97723 -55.56526 17629 ft 380 kts 253°
2026-04-26 21:19 -34.98507 -55.59582 18454 ft 383 kts 254°
2026-04-26 21:19 -34.99300 -55.62672 19250 ft 385 kts 254°
2026-04-26 21:19 -35.00099 -55.65787 20023 ft 388 kts 255°
2026-04-26 21:20 -35.00909 -55.68942 20398 ft 400 kts 255°
2026-04-26 21:20 -35.01765 -55.72288 20567 ft 416 kts 255°
2026-04-26 21:20 -35.02632 -55.75666 21111 ft 421 kts 255°
2026-04-26 21:20 -35.03503 -55.79068 21649 ft 425 kts 255°
2026-04-26 21:21 -35.04343 -55.82495 22233 ft 426 kts 258°
2026-04-26 21:21 -35.04821 -55.86087 22818 ft 426 kts 265°
2026-04-26 21:21 -35.05108 -55.89665 23363 ft 427 kts 268°
2026-04-26 21:21 -35.05041 -55.93275 23855 ft 429 kts 275°
2026-04-26 21:22 -35.04770 -55.96896 24397 ft 430 kts 276°
2026-04-26 21:22 -35.04525 -56.00541 24864 ft 433 kts 275°
2026-04-26 21:22 -35.04299 -56.04208 25326 ft 434 kts 275°
2026-04-26 21:23 -35.03817 -56.11523 26220 ft 437 kts 275°
2026-04-26 21:23 -35.03566 -56.15229 26944 ft 432 kts 275°
2026-04-26 21:23 -35.03319 -56.18831 27584 ft 428 kts 275°
2026-04-26 21:23 -35.03073 -56.22410 27984 ft 422 kts 275°
2026-04-26 21:24 -35.02580 -56.29483 28020 ft 418 kts 275°
2026-04-26 21:24 -35.02082 -56.36522 28020 ft 416 kts 275°
2026-04-26 21:25 -35.01583 -56.43516 28020 ft 414 kts 275°
2026-04-26 21:25 -35.01083 -56.50462 28019 ft 412 kts 275°
2026-04-26 21:26 -35.00576 -56.57427 28020 ft 411 kts 275°
2026-04-26 21:26 -35.00073 -56.64307 28019 ft 410 kts 275°
2026-04-26 21:27 -34.99560 -56.71235 28020 ft 409 kts 276°
2026-04-26 21:27 -34.99046 -56.78156 28020 ft 409 kts 276°
2026-04-26 21:28 -34.98529 -56.85054 27725 ft 416 kts 276°
2026-04-26 21:28 -34.98273 -56.88597 27097 ft 429 kts 275°
2026-04-26 21:28 -34.98184 -56.92294 26467 ft 434 kts 271°
2026-04-26 21:29 -34.98215 -56.95955 25842 ft 434 kts 270°
2026-04-26 21:29 -34.98228 -56.99586 25218 ft 430 kts 271°
2026-04-26 21:29 -34.98216 -57.03183 24584 ft 419 kts 271°
2026-04-26 21:29 -34.98204 -57.06649 23962 ft 406 kts 271°
2026-04-26 21:30 -34.98193 -57.10029 23335 ft 393 kts 271°
2026-04-26 21:30 -34.98181 -57.13283 23039 ft 372 kts 271°
2026-04-26 21:30 -34.98169 -57.16328 23016 ft 348 kts 271°
2026-04-26 21:30 -34.98156 -57.19198 23019 ft 326 kts 271°
2026-04-26 21:31 -34.98143 -57.21854 23021 ft 312 kts 271°
2026-04-26 21:31 -34.98127 -57.24514 23022 ft 317 kts 271°
2026-04-26 21:31 -34.98111 -57.27228 23020 ft 320 kts 271°
2026-04-26 21:31 -34.98095 -57.29945 23020 ft 319 kts 271°
2026-04-26 21:32 -34.98078 -57.32629 23020 ft 319 kts 271°
2026-04-26 21:32 -34.98061 -57.35340 23020 ft 319 kts 271°
2026-04-26 21:32 -34.98043 -57.38011 23020 ft 319 kts 271°
2026-04-26 21:32 -34.98024 -57.40726 22841 ft 323 kts 271°
2026-04-26 21:33 -34.98004 -57.43481 22224 ft 325 kts 271°
2026-04-26 21:33 -34.97985 -57.46190 21606 ft 323 kts 271°
2026-04-26 21:33 -34.97964 -57.48922 20979 ft 322 kts 271°
2026-04-26 21:33 -34.97944 -57.51646 20352 ft 321 kts 271°
2026-04-26 21:34 -34.97922 -57.54342 19729 ft 320 kts 271°
2026-04-26 21:34 -34.97900 -57.57060 19099 ft 319 kts 271°
2026-04-26 21:34 -34.97877 -57.59739 18475 ft 318 kts 271°
2026-04-26 21:34 -34.97854 -57.62403 17854 ft 317 kts 271°
2026-04-26 21:35 -34.97830 -57.65072 17230 ft 317 kts 271°
2026-04-26 21:35 -34.97806 -57.67777 16598 ft 316 kts 271°
2026-04-26 21:35 -34.97781 -57.70443 15974 ft 316 kts 271°
2026-04-26 21:35 -34.97756 -57.73083 15354 ft 315 kts 271°
2026-04-26 21:36 -34.97731 -57.75725 14723 ft 310 kts 271°
2026-04-26 21:36 -34.97679 -57.77461 14303 ft 306 kts 277°
2026-04-26 21:36 -34.96880 -57.80720 13471 ft 298 kts 291°
2026-04-26 21:36 -34.96164 -57.83053 12848 ft 294 kts 289°
2026-04-26 21:37 -34.95533 -57.85405 12221 ft 291 kts 288°
2026-04-26 21:37 -34.94917 -57.87729 11597 ft 288 kts 288°
2026-04-26 21:37 -34.94309 -57.90027 10969 ft 283 kts 288°
2026-04-26 21:37 -34.93718 -57.92278 10344 ft 276 kts 287°
2026-04-26 21:38 -34.93153 -57.94442 9727 ft 270 kts 287°
2026-04-26 21:38 -34.92586 -57.96614 9095 ft 264 kts 287°
2026-04-26 21:38 -34.92040 -57.98703 8475 ft 260 kts 287°
2026-04-26 21:38 -34.91502 -58.00767 7851 ft 255 kts 287°
2026-04-26 21:39 -34.90971 -58.02798 7227 ft 251 kts 287°
2026-04-26 21:39 -34.90442 -58.04821 6595 ft 247 kts 287°
2026-04-26 21:39 -34.89930 -58.06777 5975 ft 244 kts 287°
2026-04-26 21:39 -34.89422 -58.08721 5349 ft 240 kts 286°
2026-04-26 21:40 -34.88918 -58.10645 4722 ft 237 kts 286°
2026-04-26 21:40 -34.88421 -58.12540 4095 ft 234 kts 286°
2026-04-26 21:40 -34.87938 -58.14384 3477 ft 231 kts 286°
2026-04-26 21:40 -34.87456 -58.16215 3092 ft 220 kts 285°
2026-04-26 21:41 -34.86980 -58.18031 3078 ft 227 kts 285°
2026-04-26 21:41 -34.86517 -58.19792 3078 ft 210 kts 285°
2026-04-26 21:41 -34.86120 -58.21379 3068 ft 182 kts 279°
2026-04-26 21:41 -34.86074 -58.22791 3064 ft 154 kts 268°
2026-04-26 21:42 -34.86082 -58.23996 3073 ft 133 kts 269°
2026-04-26 21:42 -34.86085 -58.25121 3001 ft 135 kts 269°
2026-04-26 21:42 -34.86085 -58.26231 2856 ft 127 kts 269°
2026-04-26 21:42 -34.86086 -58.27323 2801 ft 129 kts 269°
2026-04-26 21:43 -34.86086 -58.28410 2741 ft 130 kts 269°
2026-04-26 21:43 -34.86086 -58.29514 2551 ft 127 kts 269°
2026-04-26 21:43 -34.86086 -58.30591 2596 ft 129 kts 269°
2026-04-26 21:43 -34.86086 -58.31683 2582 ft 129 kts 269°
2026-04-26 21:44 -34.85959 -58.32766 2506 ft 130 kts 281°
2026-04-26 21:44 -34.85752 -58.33829 2422 ft 129 kts 279°
2026-04-26 21:44 -34.85558 -58.34907 2188 ft 137 kts 279°
2026-04-26 21:44 -34.85413 -58.36036 1801 ft 130 kts 275°
2026-04-26 21:45 -34.85287 -58.37016 1625 ft 102 kts 277°
2026-04-26 21:45 -34.85157 -58.37824 1285 ft 101 kts 276°
2026-04-26 21:45 -34.85044 -58.38688 1280 ft 105 kts 277°
2026-04-26 21:45 -34.84893 -58.39573 1306 ft 108 kts 276°
2026-04-26 21:46 -34.84785 -58.40459 1405 ft 105 kts 277°
2026-04-26 21:46 -34.84663 -58.41341 1480 ft 105 kts 278°
2026-04-26 21:46 -34.84494 -58.42194 1556 ft 104 kts 278°
2026-04-26 21:46 -34.84374 -58.43071 1621 ft 106 kts 276°
2026-04-26 21:47 -34.84239 -58.43951 1655 ft 108 kts 279°
2026-04-26 21:47 -34.84056 -58.44878 1450 ft 113 kts 279°
2026-04-26 21:47 -34.83827 -58.45777 1232 ft 108 kts 286°
2026-04-26 21:47 -34.83578 -58.46615 907 ft 103 kts 281°
2026-04-26 21:48 -34.83394 -58.47457 725 ft 105 kts 278°
2026-04-26 21:48 -34.83244 -58.48356 801 ft 108 kts 277°
2026-04-26 21:48 -34.83067 -58.49243 617 ft 108 kts 283°
2026-04-26 21:48 -34.82860 -58.50085 385 ft 99 kts 278°
2026-04-26 21:49 -34.82719 -58.50912 300 ft 101 kts 276°
2026-04-26 21:49 -34.82566 -58.51748 139 ft 98 kts 277°
2026-04-26 21:49 -34.82445 -58.52438 73 ft 58 kts 281°
2026-04-26 21:49 -34.82386 -58.52743 73 ft 28 kts 291°
2026-04-26 21:50 -34.82297 -58.52868 73 ft 14 kts 329°
2026-04-26 21:50 -34.82254 -58.52891 72 ft 3 kts 324°
2026-04-26 21:50 -34.82246 -58.52898 72 ft 4 kts 327°
2026-04-26 21:50 -34.82180 -58.52925 72 ft 14 kts 344°
2026-04-26 21:51 -34.82061 -58.52980 72 ft 21 kts 316°
2026-04-26 21:51 -34.82005 -58.53191 72 ft 30 kts 282°
2026-04-26 21:51 -34.81954 -58.53462 72 ft 29 kts 283°
2026-04-26 21:51 -34.81881 -58.53639 73 ft 18 kts 320°
2026-04-26 21:52 -34.81768 -58.53708 72 ft 19 kts 331°
2026-04-26 21:52 -34.81662 -58.53827 72 ft 19 kts 315°
2026-04-26 21:52 -34.81575 -58.53914 72 ft 9 kts 319°
2026-04-26 21:52 -34.81564 -58.53926 72 ft 0 kts 319°